Location: Coed Ely
(51.5661°N, 3.4150°W)
Time: 19:56:05
(UTC+00:00)

Cosmos 1346 Rocket - Pass Details

Date: 28 January 2021
Orbit: 532 x 546 km, 81.2° (Epoch: 27 February)

Event Time Altitude Azimuth Distance (km) Brightness Sun altitude
Rises 18:06:43 0° 160° (SSE) 2,668 6.3 -11.0°
Reaches altitude 10° 18:09:07 10° 147° (SSE) 1,785 5.2 -11.3°
Maximum altitude 18:12:21 25° 91° (E) 1,101 3.8 -11.8°
Enters shadow 18:14:55 14° 42° (NE) 1,570 4.7 -12.2°
